Meteo pe oră la Abdulino

Astăzi, 3 August, Marţi

Timp Temperatura Precipitaţii Vânt Presiune Umiditate
00:00 +25°C° 0 mm 1 m/s 745 mmHg 43%
01:00 +24°C° 0 mm 2 m/s 745 mmHg 45%
02:00 +24°C° 0 mm 2 m/s 745 mmHg 46%
03:00 +23°C° 0 mm 2 m/s 745 mmHg 47%
04:00 +23°C° 0 mm 2 m/s 745 mmHg 49%
05:00 +24°C° 0 mm 2 m/s 745 mmHg 47%
06:00 +25°C° 0 mm 2 m/s 745 mmHg 44%
07:00 +27°C° 0 mm 2 m/s 745 mmHg 41%
08:00 +29°C° 0 mm 2 m/s 745 mmHg 36%
09:00 +31°C° 0 mm 3 m/s 745 mmHg 31%
10:00 +34°C° 0 mm 4 m/s 745 mmHg 27%
11:00 +36°C° 0 mm 4 m/s 744 mmHg 24%
12:00 +38°C° 0 mm 3 m/s 744 mmHg 22%
13:00 +39°C° 0 mm 3 m/s 744 mmHg 19%
14:00 +40°C° 0 mm 4 m/s 743 mmHg 18%
15:00 +41°C° 0 mm 4 m/s 743 mmHg 16%
16:00 +41°C° 0 mm 4 m/s 742 mmHg 15%
17:00 +40°C° 0 mm 4 m/s 742 mmHg 17%
18:00 +37°C° 0 mm 3 m/s 742 mmHg 20%
19:00 +36°C° 0 mm 3 m/s 742 mmHg 22%
20:00 +34°C° 0 mm 2 m/s 742 mmHg 26%
21:00 +30°C° 0 mm 2 m/s 742 mmHg 30%
22:00 +28°C° 0 mm 2 m/s 742 mmHg 35%
23:00 +28°C° 0 mm 2 m/s 743 mmHg 36%

Mâine, 4 August, Miercuri

Timp Temperatura Precipitaţii Vânt Presiune Umiditate
00:00 +27°C° 0 mm 1 m/s 743 mmHg 37%
01:00 +27°C° 0 mm 1 m/s 743 mmHg 38%
02:00 +26°C° 0 mm 1 m/s 743 mmHg 39%
03:00 +26°C° 0 mm 1 m/s 743 mmHg 40%
04:00 +25°C° 0 mm 1 m/s 743 mmHg 41%
05:00 +27°C° 0 mm 1 m/s 743 mmHg 39%
06:00 +28°C° 0 mm 1 m/s 743 mmHg 37%
07:00 +29°C° 0 mm 1 m/s 743 mmHg 35%
08:00 +32°C° 0 mm 2 m/s 743 mmHg 30%
09:00 +35°C° 0 mm 3 m/s 743 mmHg 26%
10:00 +38°C° 0 mm 3 m/s 743 mmHg 21%
11:00 +40°C° 0 mm 4 m/s 743 mmHg 18%
12:00 +41°C° 0 mm 5 m/s 743 mmHg 15%
13:00 +43°C° 0 mm 5 m/s 742 mmHg 11%
14:00 +42°C° 0 mm 5 m/s 742 mmHg 11%
15:00 +42°C° 0 mm 5 m/s 742 mmHg 11%
16:00 +42°C° 0 mm 5 m/s 741 mmHg 11%
17:00 +41°C° 0 mm 5 m/s 741 mmHg 13%
18:00 +38°C° 0 mm 4 m/s 741 mmHg 14%
19:00 +37°C° 0 mm 4 m/s 741 mmHg 16%
20:00 +35°C° 0 mm 3 m/s 741 mmHg 20%
21:00 +32°C° 0 mm 2 m/s 741 mmHg 24%
22:00 +30°C° 0 mm 2 m/s 741 mmHg 28%
23:00 +29°C° 0 mm 3 m/s 742 mmHg 38%

Poimâine, 5 August, Joi

Timp Temperatura Precipitaţii Vânt Presiune Umiditate
00:00 +27°C° 0 mm 3 m/s 742 mmHg 47%
01:00 +26°C° 0 mm 4 m/s 742 mmHg 57%
02:00 +25°C° 0 mm 4 m/s 742 mmHg 63%
03:00 +23°C° 0 mm 4 m/s 742 mmHg 70%
04:00 +22°C° 0 mm 4 m/s 742 mmHg 76%
05:00 +22°C° 0 mm 5 m/s 743 mmHg 75%
06:00 +22°C° 0 mm 5 m/s 743 mmHg 74%
07:00 +21°C° 0 mm 5 m/s 743 mmHg 72%
08:00 +22°C° 0.2 mm 5 m/s 743 mmHg 68%
09:00 +23°C° 0.2 mm 5 m/s 744 mmHg 65%
10:00 +25°C° 0.2 mm 5 m/s 744 mmHg 61%
11:00 +26°C° 0 mm 5 m/s 744 mmHg 52%
12:00 +28°C° 0 mm 5 m/s 744 mmHg 43%
13:00 +30°C° 0 mm 5 m/s 743 mmHg 35%
14:00 +32°C° 0 mm 5 m/s 743 mmHg 33%
15:00 +32°C° 0 mm 5 m/s 743 mmHg 31%
16:00 +32°C° 0 mm 5 m/s 744 mmHg 30%
17:00 +30°C° 0 mm 5 m/s 744 mmHg 31%
18:00 +29°C° 0 mm 5 m/s 744 mmHg 32%
19:00 +28°C° 0 mm 5 m/s 744 mmHg 33%
20:00 +27°C° 0 mm 6 m/s 744 mmHg 36%
21:00 +26°C° 0 mm 6 m/s 744 mmHg 39%
22:00 +23°C° 0 mm 7 m/s 744 mmHg 42%
23:00 +22°C° 0 mm 6 m/s 745 mmHg 46%

6 August, Vineri

Timp Temperatura Precipitaţii Vânt Presiune Umiditate
00:00 +21°C° 0 mm 4 m/s 745 mmHg 51%
01:00 +20°C° 0 mm 3 m/s 745 mmHg 55%
02:00 +19°C° 0 mm 3 m/s 745 mmHg 59%
03:00 +18°C° 0 mm 3 m/s 745 mmHg 63%
04:00 +17°C° 0 mm 2 m/s 746 mmHg 68%
05:00 +18°C° 0 mm 3 m/s 746 mmHg 64%
06:00 +19°C° 0 mm 3 m/s 746 mmHg 60%
07:00 +20°C° 0 mm 3 m/s 746 mmHg 56%
08:00 +21°C° 0 mm 4 m/s 747 mmHg 50%
09:00 +23°C° 0 mm 4 m/s 747 mmHg 44%
10:00 +26°C° 0 mm 4 m/s 747 mmHg 37%
11:00 +27°C° 0 mm 4 m/s 747 mmHg 34%
12:00 +28°C° 0 mm 4 m/s 746 mmHg 30%
13:00 +29°C° 0 mm 4 m/s 746 mmHg 27%
14:00 +29°C° 0 mm 4 m/s 746 mmHg 26%
15:00 +29°C° 0 mm 4 m/s 746 mmHg 25%
16:00 +30°C° 0 mm 4 m/s 746 mmHg 24%
17:00 +29°C° 0 mm 4 m/s 746 mmHg 25%
18:00 +28°C° 0 mm 4 m/s 746 mmHg 27%
19:00 +27°C° 0 mm 4 m/s 746 mmHg 29%
20:00 +25°C° 0 mm 4 m/s 746 mmHg 32%
21:00 +22°C° 0 mm 4 m/s 747 mmHg 35%
22:00 +20°C° 0 mm 4 m/s 747 mmHg 39%
23:00 +19°C° 0 mm 4 m/s 747 mmHg 42%

7 August, Sâmbătă

Timp Temperatura Precipitaţii Vânt Presiune Umiditate
00:00 +18°C° 0 mm 4 m/s 747 mmHg 45%
01:00 +17°C° 0 mm 3 m/s 747 mmHg 49%
02:00 +16°C° 0 mm 3 m/s 748 mmHg 50%
03:00 +14°C° 0 mm 3 m/s 748 mmHg 52%
04:00 +15°C° 0 mm 2 m/s 748 mmHg 53%
05:00 +16°C° 0 mm 2 m/s 749 mmHg 50%
06:00 +17°C° 0 mm 2 m/s 749 mmHg 46%
07:00 +19°C° 0 mm 2 m/s 749 mmHg 42%
08:00 +21°C° 0 mm 3 m/s 749 mmHg 38%
09:00 +24°C° 0 mm 3 m/s 749 mmHg 33%
10:00 +26°C° 0 mm 3 m/s 749 mmHg 28%
11:00 +27°C° 0 mm 3 m/s 749 mmHg 27%
12:00 +28°C° 0 mm 3 m/s 749 mmHg 26%
13:00 +29°C° 0 mm 3 m/s 749 mmHg 25%
14:00 +30°C° 0 mm 3 m/s 748 mmHg 25%
15:00 +30°C° 0 mm 4 m/s 748 mmHg 25%
16:00 +30°C° 0 mm 4 m/s 748 mmHg 26%
17:00 +30°C° 0 mm 4 m/s 748 mmHg 27%
18:00 +29°C° 0 mm 4 m/s 749 mmHg 29%
19:00 +28°C° 0 mm 4 m/s 749 mmHg 31%
20:00 +26°C° 0 mm 4 m/s 749 mmHg 37%
21:00 +22°C° 0 mm 4 m/s 749 mmHg 42%
22:00 +20°C° 0 mm 3 m/s 749 mmHg 48%
23:00 +19°C° 0 mm 3 m/s 750 mmHg 49%

8 August, Duminică

Timp Temperatura Precipitaţii Vânt Presiune Umiditate
00:00 +19°C° 0 mm 3 m/s 750 mmHg 51%
01:00 +18°C° 0 mm 3 m/s 750 mmHg 53%
02:00 +17°C° 0 mm 2 m/s 750 mmHg 54%
03:00 +17°C° 0 mm 2 m/s 750 mmHg 55%
04:00 +17°C° 0 mm 2 m/s 750 mmHg 56%
05:00 +18°C° 0 mm 2 m/s 751 mmHg 54%
06:00 +19°C° 0 mm 3 m/s 751 mmHg 51%
07:00 +20°C° 0 mm 3 m/s 751 mmHg 49%
08:00 +22°C° 0 mm 3 m/s 751 mmHg 44%
09:00 +25°C° 0 mm 3 m/s 751 mmHg 39%
10:00 +27°C° 0 mm 3 m/s 751 mmHg 35%
11:00 +28°C° 0 mm 3 m/s 751 mmHg 32%
12:00 +29°C° 0 mm 3 m/s 751 mmHg 30%
13:00 +31°C° 0 mm 3 m/s 751 mmHg 27%
14:00 +31°C° 0 mm 3 m/s 751 mmHg 27%
15:00 +33°C° 0 mm 3 m/s 750 mmHg 26%
16:00 +33°C° 0 mm 3 m/s 750 mmHg 25%
17:00 +31°C° 0 mm 3 m/s 750 mmHg 27%
18:00 +30°C° 0 mm 3 m/s 750 mmHg 29%
19:00 +30°C° 0 mm 3 m/s 750 mmHg 30%
20:00 +27°C° 0 mm 3 m/s 750 mmHg 34%
21:00 +25°C° 0 mm 3 m/s 751 mmHg 38%
22:00 +22°C° 0 mm 3 m/s 751 mmHg 42%
23:00 +21°C° 0 mm 3 m/s 751 mmHg 42%
Arată mai mult

Formular de consimțământ

Meteoprog și furnizorii noștri de servicii pot stoca și accesa date personale, precum cookies, identificatori de dispozitiv sau alte tehnologii similare pe dispozitivul dumneavoastră și procesa astfel de date pentru a personaliza conținutul și reclamele, dar și pentru a oferi caracteristici de social media și pentru a analiza traficul.

  • Stocarea și/sau accesarea informațiilor pe dispozitivul dumneavoastră

    Cookies, identificatori de dispozitiv sau alte informații pot fi stocate sau accesate pe dispozitiv în scopurile indicate mai sus.

  • Reclame și conținut personalizat, evaluarea reclamelor și a conținutului, informații despre audiențe și dezvoltarea produselor

    Reclamele și conținutul pot fi personalizate pe baza unui profil. Pot fi adăugate date suplimentare pentru a personaliza mai bine reclamele și conținutul. Performanța reclamelor și conținutului poate fi măsurată. Pot fi obținute informații despre utilizatorii care au văzut reclamele și conținutul. Aceste date pot fi utilizate pentru a dezvolta sau îmbunătăți experiența utilizatorilor, sistemele și software-ul.

Dând clic pe ‘Sunt de acord’, permiteți utilizarea cookie-urilor menționate, a identificatorilor de dispozitiv, balizelor web sau altor tehnologii similare. Setările pot fi modificate din browser-ul dispozitivului dumneavoastră.

În anumite scopuri, interesele legitime pot prima asupra consimțământului. Puteți citi mai multe informații în acest sens în Politica privind Confidențialitatea Datelor și Cookie.